Location: Cruquius
(52.3348°N, 4.6319°E)
Time: 19:52:41
(UTC+00:00)

Cosmos 1862 Rocket - Pass Details

Date: 12 May 2021
Orbit: 605 x 633 km, 82.5° (Epoch: 21 June)

Event Time Altitude Azimuth Distance (km) Brightness Sun altitude
Exits shadow 22:27:32 37° 172° (S) 950 4.0 -17.7°
Maximum altitude 22:29:10 72° 98° (E) 643 3.5 -17.7°
Drops below altitude 10° 22:33:30 10° 14° (NNE) 1,967 7.0 -17.9°
Sets 22:35:43 0° 13° (NNE) 2,876 8.1 -18.0°
